Regional Weather Roundup
Issued by NWS

Home | Current Version | Previous Version | Graphics & Text | Print | Product List | Glossary On
Versions: 1 2 3 4 5 6 7 8 9 10 11 12 13 14 15 16 17 18 19 20 21 22 23 24 25 26 27 28 29 30 31 32 33 34 35 36 37 38 39 40 41 42 43 44 45 46 47 48 49 50
000
ASUS43 KMPX 190910
RWRMN
WEATHER ROUNDUP FOR MINNESOTA
NATIONAL WEATHER SERVICE TWIN CITIES/CHANHASSEN MN
400 AM CDT TUE SEP 19 2017


NOTE: "FAIR" INDICATES FEW OR NO CLOUDS BELOW 12,000 FEET WITH NO
SIGNIFICANT WEATHER AND/OR OBSTRUCTIONS TO VISIBILITY. N/A MEANS
CURRENT SKY AND/OR WEATHER CONDITIONS ARE NOT AVAILABLE.

MNZ060>063-068>070-191000-
   Twin Cities Metro

CITY           SKY/WX    TMP DP  RH WIND       PRES   REMARKS
TWIN CITIES    CLOUDY    60  58  92 SE7       29.92F
ST PAUL        CLOUDY    59  57  93 SE8       29.93F
CRYSTAL        CLOUDY    60  54  80 E6        29.90F
BLAINE         CLOUDY    61  59  94 SE3       29.92S
LAKEVILLE      MOCLDY    55  55 100 CALM      29.92F FOG
EDEN PRAIRIE   CLOUDY    60  57  89 E7        29.91S
SOUTH ST PAUL  CLOUDY    59  58  96 CALM      29.92F
LAKE ELMO      CLOUDY    57  55  94 CALM      29.94F
$$
MNZ001>005-007-008-013>017-022>024-027-028-191000-
   Northwest Minnesota

CITY           SKY/WX    TMP DP  RH WIND       PRES   REMARKS
BEMIDJI        CLOUDY    54  53  97 SE9       29.88F
HALLOCK        CLOUDY    59  57  94 SE8       29.81F
ROSEAU           N/A     57  52  82 SE6       29.86S HAZE
WARROAD        CLOUDY    55  52  88 SE8       29.87F FOG
THIEF RVR FALL CLOUDY    57  55  93 SE12      29.84F
CROOKSTON      CLOUDY    59  55  88 SE12      29.82F
FOSSTON        CLOUDY    54  52  94 SE8       29.85F
DETROIT LAKES  CLOUDY    55  55 100 SE10G16   29.86F FOG
MOORHEAD       CLOUDY    61  57  88 SE7       29.81F FOG
PARK RAPIDS    CLOUDY    55  53  93 SE12      29.88F FOG
MAHNOMEN       CLOUDY    56  55  95 SE10G18   29.84S
$$
MNZ006-009>011-018-025>026-191000-
   North Central Minnesota

CITY           SKY/WX    TMP DP  RH WIND       PRES   REMARKS
BAUDETTE       CLOUDY    54  54 100 SE8       29.89F
FLAG ISLAND    CLOUDY    55  54  94 SE14      29.87F
INTL FALLS     CLOUDY    54  50  86 SE6       29.93F
WASKISH        CLOUDY    54  54 100 SE7       29.89F FOG
BIG FORK       CLOUDY    54  52  94 SE6       29.93S
LONGVILLE      CLOUDY    54  54 100 SE5       29.91F FOG
GRAND RAPIDS   CLOUDY    53  52  96 SE6       29.95F
CRANE LAKE     CLOUDY    52  52 100 CALM      29.97F
ORR            CLOUDY    52  48  87 CALM      29.92F FOG
COOK           CLOUDY    54  52  94 CALM      29.95F
WALKER         CLOUDY    54  53  97 SE3       29.89F
$$
MNZ012-019>021-037-191000-
   Northeast Minnesota

CITY           SKY/WX    TMP DP  RH WIND       PRES   REMARKS
DULUTH         DRIZZLE   54  54 100 SE7       29.96F FOG
ELY            CLOUDY    54  50  87 SE5       29.98F
HIBBING        CLOUDY    52  51  97 SE6       29.95F
EVELETH        CLOUDY    54  52  93 SE3       29.97F
DULUTH HARBOR  CLOUDY    57  55  94 E3        29.98S
TWO HARBORS    MOCLDY    57  54  88 E5        29.96F
GRAND MARAIS     N/A     59  55  87 E6        30.01S
G MARAIS ARPRT CLOUDY    52  48  87 SE3       30.03R
$$
MNZ029>031-032-039>041-046>048-054>057-064-191000-
   West Central Minnesota

CITY           SKY/WX    TMP DP  RH WIND       PRES   REMARKS
FERGUS FALLS   CLOUDY    59  59 100 SE10      29.83F
WHEATON        CLOUDY    61  59  94 SE12      29.82F FOG
MORRIS         FOG       61  61 100 SE10      29.83S VSB 1/2
ALEXANDRIA     FOG       57  57 100 SE9       29.88F VSB 1/2
ELBOW LAKE     CLOUDY    58  58 100 E7        29.84F FOG
WADENA         FOG       54  54 100 E8        29.87F VSB 3/4
GLENWOOD       FOG       57  57 100 E8        29.87F VSB 1/4
APPLETON       CLOUDY    63  61  94 SE8       29.82F FOG
BENSON         CLOUDY    63  61  94 S6        29.86F FOG
ORTONVILLE     CLOUDY    63  61  94 NE10      29.81F FOG
MADISON        CLOUDY    66  66 100 SE8       29.82F FOG
WILLMAR        FOG       63  63 100 E6        29.88F VSB 1/2
$$
MNZ033>034-036-042>043-049>051-058-059-191000-
   Central Minnesota

CITY           SKY/WX    TMP DP  RH WIND       PRES   REMARKS
ST CLOUD       CLOUDY    56  56 100 E6        29.91F FOG
PAYNESVILLE    FOG       58  58 100 E5        29.90S VSB 1/2
AITKIN         CLOUDY    54  52  94 E3        29.91F
PINE RIVER     CLOUDY    54  52  94 SE5       29.94S
BRAINERD       CLOUDY    54  54 100 SE6       29.92F FOG
STAPLES        CLOUDY    54  54 100 SE3       29.90F FOG
LONG PRAIRIE   SNOW      54  54 100 NE6       29.89F VSB 1/4
LITTLE FALLS   FOG       54  52  94 SE5       29.91S VSB 3/4
LITCHFIELD     FOG       61  61 100 SE7       29.90S VSB 1/2
BUFFALO        CLOUDY    58  56  91 CALM      29.92F
MAPLE LAKE     CLOUDY    59  58  97 CALM      29.91F
HUTCHINSON     CLOUDY    61  61 100 E6        29.90F FOG
$$
MNZ037-044-045-052-053-191000-
   East Central Minnesota

CITY           SKY/WX    TMP DP  RH WIND       PRES   REMARKS
PRINCETON      CLOUDY    57  55  94 E3        29.92F
MORA           CLOUDY    54  52  94 CALM      29.95F
CAMBRIDGE      CLOUDY    61  55  82 CALM      29.93F
RUSH CITY      CLOUDY    56  55  93 CALM      29.94S
MOOSE LAKE     CLOUDY    55  54  94 CALM      29.93F
HINCKLEY       CLOUDY    55  55 100 E3        29.94F
CLOQUET        CLOUDY    54  52  94 E5        29.96F FOG
MCGREGOR       CLOUDY    54  54 100 SE5       29.94F
$$
MNZ071>073-080-081-089-090-097-098-191000-
   Southwest Minnesota

CITY           SKY/WX    TMP DP  RH WIND       PRES   REMARKS
MONTEVIDEO     CLOUDY    63  63 100 S6        29.84F FOG
GRANITE FALLS  CLOUDY    65  64  97 SE6       29.87S FOG
CANBY          FOG       64  63  97 E6        29.84F VSB 1/2
MARSHALL       CLOUDY    63  62  97 SE9       29.84F FOG
REDWOOD FALLS  CLOUDY    63  62  97 SE8       29.86F FOG
OLIVIA         CLOUDY    63  61  94 SE8       29.86F FOG
PIPESTONE      MOCLDY    66  64  94 S9        29.84F FOG
WINDOM         CLOUDY    64  63  94 SE7       29.87F FOG
WORTHINGTON    CLOUDY    64  63  96 S7        29.87F
JACKSON        CLOUDY    63  63 100 S6        29.88F FOG
TRACY          CLOUDY    65  65 100 S6        29.85F FOG
SLAYTON        CLOUDY    63  61  95 SE5       29.87F FOG
$$
MNZ065>067-074>077-082>085-091>093-191000-
   South Central Minnesota

CITY           SKY/WX    TMP DP  RH WIND       PRES   REMARKS
MANKATO        CLOUDY    63  61  94 SE5       29.91R FOG
NEW ULM        FOG       61  61 100 SE6       29.89S VSB 3/4
ST JAMES       FOG       63  63 100 SE5       29.89F VSB 3/4
FAIRMONT       FOG       63  63 100 S9        29.89F VSB 1/4
GLENCOE        CLOUDY    60  60 100 E5        29.90S
FARIBAULT      PTCLDY    57  57 100 SE3       29.92S
OWATONNA       MOCLDY    61  57  88 SE7       29.92S
WASECA         CLOUDY    59  57  94 SE3       29.92F
ALBERT LEA     CLOUDY    64  63  94 S5        29.92S FOG
$$
MNZ078>079-086>088-094>096-191000-
   Southeast Minnesota

CITY           SKY/WX    TMP DP  RH WIND       PRES   REMARKS
ROCHESTER      CLOUDY    56  55  97 SE5       29.95S
RED WING       CLOUDY    59  55  88 E3        29.92F
STANTON        CLOUDY    60  57  89 SE3       29.91F
DODGE CENTER   CLOUDY    57  55  94 SE3       29.94S
WINONA         CLOUDY    59  57  94 SE3       29.95S
AUSTIN         CLOUDY    61  57  88 SE5       29.93S
PRESTON        CLOUDY    56  55  94 SE3       29.95F
$$
ABBREVIATIONS USED IN REMARKS
   TC - TEMPERATURES IN CELSIUS
  WCI - WIND CHILL INDEX
   HX - HEAT INDEX
  VSB - VISIBILITY
$$




USA.gov is the U.S. government's official web portal to all federal, state and local government web resources and services.